West Columbia, SC

4:36 AM EST on February 23, 2017 (GMT -0500)
Columbia Metro

Weather History for KCAE - March, 2013

Change the Weather History Date:

Sunday, March 3, 2013

  Actual Average Record
Temperature  
Mean Temperature 43 °F 52 °F  
Max Temperature 50 °F 65 °F 88 °F (1976)
Min Temperature 35 °F 40 °F 4 °F (1980)
Degree Days  
Heating Degree Days 22 13  
Month to date heating degree days 67 40  
Since 1 July heating degree days 1787 2139  
Cooling Degree Days 0 0  
Month to date cooling degree days 0 0  
Year to date cooling degree days 25 4  
Moisture  
Dew Point 23 °F    
Average Humidity 54    
Maximum Humidity 76    
Minimum Humidity 31    
Precipitation  
Precipitation 0.00 in 0.13 in 2.80 in (1971)
Month to date precipitation 0.00 0.39  
Year to date precipitation 6.72 7.58  
Sea Level Pressure  
Sea Level Pressure 29.96 in    
Wind  
Wind Speed 6 mph (NW)    
Max Wind Speed 16 mph    
Max Gust Speed 25 mph    
Visibility 10 miles    
Events      
T = Trace of Precipitation, MM = Missing Value Source: NWS Daily Summary

Daily Weather History Graph

Daily Weather History Graph

Search for Another Location

Airport or City:

Trip Planner

Search our weather history database for the weather conditions in past years. The results will help you decide how hot, cold, wet, or windy it might be!

Date:

Astronomy

Mar. 03, 2013 Rise Set
Actual Time 6:50 AM EST 6:22 PM EST
Civil Twilight 6:25 AM EST 6:47 PM EST
Nautical Twilight 5:56 AM EST 7:16 PM EST
Astronomical Twilight 5:27 AM EST 7:45 PM EST
Moon No Moon Rise 10:22 AM EST (3/3)
Length of Visible Light 12h 22m
Length of Day
11h 32m
Waning Gibbous, 64% of the Moon is Illuminated
Mar 3
Waning Gibbous
Mar 4
Last Quarter
Mar 11
New
Mar 19
First Quarter
Mar 27
Full

Hourly Weather History & Observations

Time (EST) Temp. Windchill Dew Point Humidity Pressure Visibility Wind Dir Wind Speed Gust Speed Precip Events Conditions
12:31 AM 42.8 °F 41.1 °F 33.8 °F 70% 29.93 in 10.0 mi North 3.5 mph - N/A   Overcast
12:56 AM 42.1 °F - 35.1 °F 76% 29.94 in 10.0 mi Calm Calm - N/A   Overcast
1:56 AM 42.1 °F 39.2 °F 28.9 °F 60% 29.94 in 10.0 mi Variable 4.6 mph - N/A   Overcast
2:56 AM 41.0 °F 35.8 °F 26.1 °F 55% 29.93 in 10.0 mi North 8.1 mph - N/A   Overcast
3:56 AM 37.9 °F 33.5 °F 23.0 °F 55% 29.93 in 10.0 mi NNE 5.8 mph - N/A   Partly Cloudy
4:56 AM 36.0 °F - 24.1 °F 62% 29.95 in 10.0 mi Calm Calm - N/A   Partly Cloudy
5:56 AM 35.1 °F 32.2 °F 25.0 °F 67% 29.97 in 10.0 mi NNW 3.5 mph - N/A   Overcast
6:56 AM 36.0 °F 32.1 °F 23.0 °F 59% 29.97 in 10.0 mi North 4.6 mph - N/A   Overcast
7:56 AM 36.0 °F 33.3 °F 21.0 °F 55% 29.99 in 10.0 mi North 3.5 mph - N/A   Mostly Cloudy
8:56 AM 37.0 °F 33.3 °F 19.9 °F 50% 30.01 in 10.0 mi NNE 4.6 mph - N/A   Overcast
9:56 AM 39.0 °F 34.0 °F 19.0 °F 45% 30.00 in 10.0 mi NNE 6.9 mph - N/A   Overcast
10:56 AM 41.0 °F 37.1 °F 19.0 °F 41% 30.00 in 10.0 mi North 5.8 mph - N/A   Overcast
11:56 AM 44.1 °F 41.5 °F 19.9 °F 38% 29.98 in 10.0 mi Variable 4.6 mph - N/A   Scattered Clouds
12:56 PM 45.0 °F 39.3 °F 21.0 °F 39% 29.96 in 10.0 mi WNW 11.5 mph - N/A   Overcast
1:56 PM 45.0 °F 40.6 °F 21.9 °F 40% 29.94 in 10.0 mi West 8.1 mph - N/A   Overcast
2:56 PM 46.0 °F 40.6 °F 19.9 °F 35% 29.93 in 10.0 mi SW 11.5 mph - N/A   Mostly Cloudy
3:56 PM 48.0 °F - 21.0 °F 34% 29.92 in 10.0 mi WNW 8.1 mph - N/A   Mostly Cloudy
4:56 PM 48.0 °F - 19.9 °F 33% 29.92 in 10.0 mi West 8.1 mph - N/A   Mostly Cloudy
5:56 PM 48.0 °F - 21.0 °F 34% 29.93 in 10.0 mi WNW 6.9 mph - N/A   Scattered Clouds
6:56 PM 44.1 °F 41.5 °F 21.9 °F 42% 29.95 in 10.0 mi West 4.6 mph - N/A   Partly Cloudy
7:56 PM 37.9 °F 34.4 °F 24.1 °F 57% 29.97 in 10.0 mi West 4.6 mph - N/A   Clear
8:56 PM 36.0 °F 33.3 °F 24.1 °F 62% 29.99 in 10.0 mi West 3.5 mph - N/A   Clear
9:56 PM 37.9 °F 32.1 °F 21.9 °F 53% 30.01 in 10.0 mi WNW 8.1 mph - N/A   Clear
10:56 PM 39.9 °F 33.9 °F 18.0 °F 41% 30.02 in 10.0 mi NW 9.2 mph - N/A   Clear
11:56 PM 37.9 °F 32.7 °F 17.1 °F 43% 30.04 in 10.0 mi NW 6.9 mph - N/A   Clear